TimeEST,TemperatureF,Dew PointF,Humidity,Sea Level PressureIn,VisibilityMPH,Wind Direction,Wind SpeedMPH,Gust SpeedMPH,PrecipitationIn,Events,Conditions,WindDirDegrees,DateUTC
12:15 AM,17.6,10.4,73,29.77,2.5,WSW,15.0,23.0,N/A,,Overcast,240,2013-02-20 05:15:00
12:35 AM,15.8,12.2,86,29.77,3.0,WSW,16.1,21.9,N/A,,Overcast,240,2013-02-20 05:35:00
12:55 AM,15.8,10.4,79,29.77,2.5,WSW,18.4,-,N/A,,Overcast,240,2013-02-20 05:55:00
1:15 AM,15.8,12.2,86,29.77,2.5,WSW,17.3,21.9,N/A,,Overcast,240,2013-02-20 06:15:00
1:35 AM,15.8,10.4,79,29.78,3.0,WSW,15.0,-,N/A,,Overcast,240,2013-02-20 06:35:00
1:55 AM,15.8,10.4,79,29.78,2.5,WSW,15.0,20.7,N/A,,Overcast,240,2013-02-20 06:55:00
2:15 AM,15.8,10.4,79,29.79,2.5,WSW,17.3,-,N/A,,Overcast,240,2013-02-20 07:15:00
2:35 AM,15.8,10.4,79,29.79,2.5,SW,12.7,-,N/A,,Overcast,230,2013-02-20 07:35:00
2:55 AM,15.8,10.4,79,29.79,2.5,WSW,16.1,21.9,N/A,,Overcast,240,2013-02-20 07:55:00
3:15 AM,15.8,10.4,79,29.79,2.0,SW,18.4,23.0,N/A,,Overcast,230,2013-02-20 08:15:00
3:35 AM,15.8,10.4,79,29.79,1.8,SW,16.1,24.2,N/A,,Overcast,230,2013-02-20 08:35:00
3:55 AM,14.0,8.6,79,29.79,2.5,WSW,16.1,21.9,N/A,,Overcast,240,2013-02-20 08:55:00
4:15 AM,14.0,8.6,79,29.79,2.0,SW,16.1,24.2,N/A,,Overcast,230,2013-02-20 09:15:00
4:35 AM,14.0,8.6,79,29.80,2.5,SW,12.7,18.4,N/A,,Overcast,230,2013-02-20 09:35:00
4:55 AM,14.0,8.6,79,29.80,2.0,SW,13.8,20.7,N/A,,Overcast,230,2013-02-20 09:55:00
5:15 AM,12.2,8.6,85,29.81,1.8,WSW,16.1,21.9,N/A,,Overcast,240,2013-02-20 10:15:00
5:35 AM,12.2,8.6,85,29.81,1.5,WSW,15.0,20.7,N/A,,Overcast,240,2013-02-20 10:35:00
5:55 AM,12.2,8.6,85,29.82,1.2,WSW,15.0,-,N/A,,Overcast,240,2013-02-20 10:55:00
6:15 AM,12.2,8.6,85,29.82,0.8,WSW,15.0,20.7,N/A,,Overcast,240,2013-02-20 11:15:00
6:35 AM,12.2,8.6,85,29.83,0.8,SW,11.5,-,N/A,,Overcast,230,2013-02-20 11:35:00
7:15 AM,12.2,8.6,85,29.84,0.5,WSW,15.0,-,N/A,,Overcast,240,2013-02-20 12:15:00
7:35 AM,12.2,8.6,85,29.84,0.5,WSW,12.7,-,N/A,,Overcast,240,2013-02-20 12:35:00
7:55 AM,12.2,10.4,92,29.85,0.5,WSW,12.7,-,N/A,,Overcast,240,2013-02-20 12:55:00
8:15 AM,14.0,8.6,79,29.85,1.0,West,11.5,19.6,N/A,,Overcast,260,2013-02-20 13:15:00
8:35 AM,15.8,10.4,79,29.85,1.0,WSW,12.7,21.9,N/A,,Overcast,250,2013-02-20 13:35:00
8:55 AM,15.8,10.4,79,29.85,0.5,West,18.4,27.6,N/A,,Overcast,260,2013-02-20 13:55:00
9:15 AM,15.8,10.4,79,29.85,1.2,West,15.0,25.3,N/A,,Overcast,260,2013-02-20 14:15:00
9:35 AM,15.8,10.4,79,29.86,0.5,West,13.8,21.9,N/A,,Overcast,270,2013-02-20 14:35:00
9:55 AM,15.8,10.4,79,29.87,0.8,West,13.8,19.6,N/A,,Overcast,270,2013-02-20 14:55:00
10:15 AM,15.8,12.2,86,29.88,0.8,WNW,15.0,21.9,N/A,,Overcast,300,2013-02-20 15:15:00
10:35 AM,15.8,10.4,79,29.89,0.5,WNW,11.5,19.6,N/A,,Overcast,290,2013-02-20 15:35:00
10:55 AM,15.8,10.4,79,29.90,0.8,West,16.1,21.9,N/A,,Overcast,280,2013-02-20 15:55:00
11:15 AM,15.8,8.6,73,29.90,0.8,WNW,17.3,27.6,N/A,,Overcast,290,2013-02-20 16:15:00
11:35 AM,15.8,8.6,73,29.91,1.0,WNW,16.1,24.2,N/A,,Overcast,290,2013-02-20 16:35:00
11:55 AM,15.8,8.6,73,29.92,1.2,West,17.3,27.6,N/A,,Overcast,260,2013-02-20 16:55:00
12:15 PM,15.8,8.6,73,29.92,1.5,West,15.0,21.9,N/A,,Overcast,280,2013-02-20 17:15:00
12:35 PM,15.8,6.8,68,29.92,1.5,West,13.8,24.2,N/A,,Overcast,270,2013-02-20 17:35:00
12:55 PM,15.8,8.6,73,29.93,1.2,West,17.3,25.3,N/A,,Overcast,270,2013-02-20 17:55:00
1:15 PM,15.8,8.6,73,29.93,2.0,West,20.7,26.5,N/A,,Overcast,270,2013-02-20 18:15:00
1:35 PM,15.8,8.6,73,29.94,1.2,WNW,16.1,25.3,N/A,,Overcast,290,2013-02-20 18:35:00
1:55 PM,15.8,8.6,73,29.94,1.0,West,15.0,23.0,N/A,,Overcast,280,2013-02-20 18:55:00
2:15 PM,15.8,8.6,73,29.95,1.2,West,13.8,27.6,N/A,,Overcast,270,2013-02-20 19:15:00
2:35 PM,15.8,10.4,79,29.95,1.0,West,15.0,-,N/A,,Overcast,270,2013-02-20 19:35:00
2:55 PM,15.8,8.6,73,29.96,1.0,West,18.4,25.3,N/A,,Overcast,270,2013-02-20 19:55:00
3:15 PM,15.8,10.4,79,29.97,1.2,West,12.7,-,N/A,,Overcast,280,2013-02-20 20:15:00
3:35 PM,15.8,10.4,79,29.97,0.8,West,11.5,-,N/A,,Overcast,280,2013-02-20 20:35:00
3:55 PM,15.8,10.4,79,29.98,1.2,West,13.8,-,N/A,,Overcast,270,2013-02-20 20:55:00
4:15 PM,15.8,10.4,79,29.98,1.8,WNW,11.5,20.7,N/A,,Overcast,290,2013-02-20 21:15:00
4:35 PM,15.8,10.4,79,29.99,2.0,West,18.4,24.2,N/A,,Overcast,280,2013-02-20 21:35:00
5:15 PM,15.8,10.4,79,30.01,2.0,WNW,11.5,-,N/A,,Overcast,290,2013-02-20 22:15:00
5:35 PM,15.8,10.4,79,30.03,2.5,WNW,10.4,-,N/A,,Overcast,290,2013-02-20 22:35:00
5:55 PM,15.8,8.6,73,30.03,6.0,West,10.4,16.1,N/A,,Overcast,280,2013-02-20 22:55:00
6:15 PM,15.8,10.4,79,30.04,3.0,West,8.1,-,N/A,,Overcast,280,2013-02-20 23:15:00
6:35 PM,15.8,10.4,79,30.05,4.0,West,10.4,-,N/A,,Overcast,280,2013-02-20 23:35:00
6:55 PM,15.8,10.4,79,30.05,3.0,West,9.2,-,N/A,,Overcast,270,2013-02-20 23:55:00
7:15 PM,15.8,10.4,79,30.05,3.0,West,9.2,-,N/A,,Overcast,270,2013-02-21 00:15:00
7:35 PM,15.8,10.4,79,-9999,4.0,North,-9999.0,-,N/A,,Overcast,0,2013-02-21 00:35:00
7:55 PM,15.8,10.4,79,30.04,2.5,West,9.2,17.3,N/A,,Overcast,280,2013-02-21 00:55:00
8:15 PM,15.8,10.4,79,30.04,4.0,West,11.5,-,N/A,,Overcast,280,2013-02-21 01:15:00
8:35 PM,15.8,10.4,79,30.04,4.0,WNW,10.4,18.4,N/A,,Overcast,290,2013-02-21 01:35:00
8:55 PM,15.8,10.4,79,30.05,5.0,WNW,12.7,17.3,N/A,,Overcast,290,2013-02-21 01:55:00
9:15 PM,15.8,10.4,79,30.05,5.0,WNW,10.4,-,N/A,,Overcast,290,2013-02-21 02:15:00
9:35 PM,15.8,10.4,79,30.05,5.0,West,9.2,-,N/A,,Overcast,280,2013-02-21 02:35:00
9:55 PM,15.8,10.4,79,30.05,5.0,West,9.2,-,N/A,,Overcast,270,2013-02-21 02:55:00
10:15 PM,15.8,10.4,79,30.04,3.0,WNW,5.8,-,N/A,,Overcast,290,2013-02-21 03:15:00
10:35 PM,15.8,10.4,79,30.04,4.0,WNW,8.1,-,N/A,,Overcast,290,2013-02-21 03:35:00
10:55 PM,15.8,12.2,86,30.04,4.0,WNW,8.1,-,N/A,,Overcast,300,2013-02-21 03:55:00
11:35 PM,15.8,10.4,79,30.04,5.0,West,8.1,-,N/A,,Overcast,280,2013-02-21 04:35:00
11:55 PM,15.8,12.2,86,30.04,5.0,West,6.9,-,N/A,,Overcast,280,2013-02-21 04:55:00